When you browse on this site, cookies collect data to enhance your experience and personalize the content and advertising you see.
Visit our Privacy Policy to learn more. By continuing to use the site, you agree to this use of cookies and data.
  • In Hungary
  • List of Countries
  • For 7 days
  • Water Temperature
  • Satellite Maps
  • Weather Map
  • News
  • Weather Widgets
  • user-avatar
    Login

    Hourly Weather Lima

    Today, 16 February, Saturday

    Time Temperature Precipitation Wind Pressure Humidity
    00:00 -7°C° 0 mm 3 mps 737 mmHg 73%
    01:00 -7°C° 0 mm 3 mps 737 mmHg 73%
    02:00 -7°C° 0 mm 3 mps 738 mmHg 73%
    03:00 -6°C° 0 mm 2 mps 738 mmHg 73%
    04:00 -6°C° 0 mm 2 mps 738 mmHg 73%
    05:00 -6°C° 0 mm 2 mps 738 mmHg 74%
    06:00 -7°C° 0 mm 3 mps 738 mmHg 74%
    07:00 -6°C° 0 mm 3 mps 739 mmHg 70%
    08:00 -5°C° 0 mm 3 mps 739 mmHg 66%
    09:00 -5°C° 0 mm 3 mps 740 mmHg 62%
    10:00 -4°C° 0 mm 3 mps 739 mmHg 59%
    11:00 -2°C° 0 mm 2 mps 739 mmHg 55%
    12:00 -1°C° 0 mm 2 mps 739 mmHg 51%
    13:00 -1°C° 0 mm 2 mps 739 mmHg 52%
    14:00 0°C° 0 mm 3 mps 738 mmHg 52%
    15:00 0°C° 0 mm 3 mps 738 mmHg 52%
    16:00 -1°C° 0 mm 3 mps 738 mmHg 59%
    17:00 -2°C° 0 mm 3 mps 738 mmHg 65%
    18:00 -5°C° 0 mm 3 mps 738 mmHg 72%
    19:00 -5°C° 0 mm 3 mps 739 mmHg 73%
    20:00 -7°C° 0 mm 4 mps 739 mmHg 74%
    21:00 -7°C° 0 mm 4 mps 739 mmHg 75%
    22:00 -7°C° 0 mm 5 mps 738 mmHg 73%
    23:00 -7°C° 0 mm 5 mps 738 mmHg 72%

    Tomorrow, 17 February, Sunday

    Time Temperature Precipitation Wind Pressure Humidity
    00:00 -7°C° 0 mm 5 mps 738 mmHg 71%
    01:00 -7°C° 0 mm 5 mps 738 mmHg 71%
    02:00 -7°C° 0 mm 5 mps 737 mmHg 71%
    03:00 -7°C° 0 mm 4 mps 737 mmHg 71%
    04:00 -7°C° 0 mm 4 mps 737 mmHg 70%
    05:00 -6°C° 0 mm 5 mps 736 mmHg 70%
    06:00 -6°C° 0 mm 5 mps 736 mmHg 70%
    07:00 -6°C° 0 mm 5 mps 736 mmHg 70%
    08:00 -6°C° 0 mm 5 mps 736 mmHg 70%
    09:00 -6°C° 0 mm 5 mps 736 mmHg 69%
    10:00 -5°C° 0.1 mm 5 mps 736 mmHg 69%
    11:00 -5°C° 0.1 mm 5 mps 735 mmHg 68%
    12:00 -4°C° 0.1 mm 5 mps 735 mmHg 67%
    13:00 -4°C° 1.1 mm 5 mps 734 mmHg 75%
    14:00 -5°C° 1.1 mm 5 mps 733 mmHg 84%
    15:00 -5°C° 1.1 mm 5 mps 733 mmHg 92%
    16:00 -5°C° 0.6 mm 5 mps 733 mmHg 92%
    17:00 -5°C° 0.6 mm 4 mps 733 mmHg 93%
    18:00 -5°C° 0.6 mm 4 mps 733 mmHg 94%
    19:00 -5°C° 0.3 mm 4 mps 733 mmHg 94%
    20:00 -5°C° 0.3 mm 4 mps 733 mmHg 94%
    21:00 -5°C° 0.3 mm 4 mps 733 mmHg 94%
    22:00 -5°C° 0.1 mm 4 mps 734 mmHg 93%
    23:00 -5°C° 0.1 mm 4 mps 734 mmHg 93%

    Day after tomorrow, 18 February, Monday

    Time Temperature Precipitation Wind Pressure Humidity
    00:00 -7°C° 0.1 mm 4 mps 734 mmHg 93%
    01:00 -6°C° 0.2 mm 3 mps 735 mmHg 93%
    02:00 -6°C° 0.2 mm 3 mps 735 mmHg 93%
    03:00 -6°C° 0.2 mm 3 mps 736 mmHg 93%
    04:00 -6°C° 0.1 mm 3 mps 736 mmHg 93%
    05:00 -6°C° 0.1 mm 3 mps 737 mmHg 93%
    06:00 -7°C° 0.1 mm 3 mps 738 mmHg 93%
    07:00 -6°C° 0 mm 3 mps 739 mmHg 91%
    08:00 -6°C° 0 mm 3 mps 740 mmHg 90%
    09:00 -6°C° 0 mm 3 mps 741 mmHg 88%
    10:00 -6°C° 0 mm 3 mps 742 mmHg 86%
    11:00 -5°C° 0 mm 3 mps 742 mmHg 85%
    12:00 -5°C° 0 mm 3 mps 743 mmHg 83%
    13:00 -4°C° 0 mm 3 mps 743 mmHg 82%
    14:00 -4°C° 0 mm 3 mps 744 mmHg 81%
    15:00 -4°C° 0 mm 3 mps 744 mmHg 80%
    16:00 -5°C° 0 mm 3 mps 745 mmHg 83%
    17:00 -4°C° 0 mm 2 mps 746 mmHg 85%
    18:00 -4°C° 0 mm 2 mps 746 mmHg 88%
    19:00 -5°C° 0 mm 2 mps 747 mmHg 88%
    20:00 -3°C° 0 mm 1 mps 748 mmHg 89%
    21:00 -3°C° 0 mm 1 mps 748 mmHg 89%
    22:00 -4°C° 0 mm 1 mps 748 mmHg 89%
    23:00 -6°C° 0 mm 1 mps 748 mmHg 90%

    19 February, Tuesday

    Time Temperature Precipitation Wind Pressure Humidity
    00:00 -6°C° 0 mm 1 mps 748 mmHg 90%
    01:00 -7°C° 0 mm 1 mps 748 mmHg 90%
    02:00 -7°C° 0 mm 1 mps 749 mmHg 91%
    03:00 -7°C° 0 mm 1 mps 749 mmHg 91%
    04:00 -7°C° 0 mm 1 mps 749 mmHg 90%
    05:00 -7°C° 0 mm 0 mps 750 mmHg 90%
    06:00 -8°C° 0 mm 0 mps 750 mmHg 89%
    07:00 -7°C° 0 mm 0 mps 750 mmHg 85%
    08:00 -5°C° 0 mm 0 mps 751 mmHg 81%
    09:00 -4°C° 0 mm 0 mps 751 mmHg 77%
    10:00 -3°C° 0 mm 0 mps 751 mmHg 74%
    11:00 -2°C° 0 mm 1 mps 750 mmHg 72%
    12:00 -1°C° 0 mm 1 mps 750 mmHg 70%
    13:00 -1°C° 0 mm 1 mps 749 mmHg 71%
    14:00 -2°C° 0 mm 2 mps 748 mmHg 72%
    15:00 -2°C° 0 mm 3 mps 747 mmHg 73%
    16:00 -4°C° 0 mm 3 mps 747 mmHg 76%
    17:00 -4°C° 0 mm 3 mps 748 mmHg 79%
    18:00 -5°C° 0 mm 3 mps 748 mmHg 83%
    19:00 -5°C° 0 mm 3 mps 747 mmHg 84%
    20:00 -5°C° 0 mm 3 mps 747 mmHg 84%
    21:00 -5°C° 0 mm 3 mps 747 mmHg 85%
    22:00 -5°C° 0.3 mm 4 mps 746 mmHg 88%
    23:00 -5°C° 0.3 mm 4 mps 745 mmHg 90%

    20 February, Wednesday

    Time Temperature Precipitation Wind Pressure Humidity
    00:00 -5°C° 0.3 mm 4 mps 744 mmHg 93%
    01:00 -6°C° 0.5 mm 5 mps 743 mmHg 93%
    02:00 -6°C° 0.5 mm 5 mps 742 mmHg 93%
    03:00 -6°C° 0.5 mm 6 mps 742 mmHg 93%
    04:00 -6°C° 0.5 mm 6 mps 741 mmHg 93%
    05:00 -6°C° 0.5 mm 6 mps 741 mmHg 93%
    06:00 -7°C° 0.5 mm 7 mps 741 mmHg 92%
    07:00 -7°C° 0.2 mm 7 mps 740 mmHg 92%
    08:00 -7°C° 0.2 mm 7 mps 740 mmHg 92%
    09:00 -7°C° 0.2 mm 7 mps 740 mmHg 92%
    10:00 -6°C° 0.1 mm 6 mps 739 mmHg 92%
    11:00 -5°C° 0.1 mm 5 mps 739 mmHg 92%
    12:00 -5°C° 0.1 mm 5 mps 738 mmHg 93%
    13:00 -4°C° 0.1 mm 4 mps 738 mmHg 93%
    14:00 -3°C° 0.1 mm 4 mps 737 mmHg 94%
    15:00 -3°C° 0.1 mm 4 mps 737 mmHg 94%
    16:00 -2°C° 0.1 mm 3 mps 737 mmHg 95%
    17:00 -2°C° 0.1 mm 3 mps 736 mmHg 95%
    18:00 -2°C° 0.1 mm 3 mps 736 mmHg 96%
    19:00 -2°C° 0 mm 2 mps 737 mmHg 96%
    20:00 -2°C° 0 mm 2 mps 737 mmHg 97%
    21:00 0°C° 0 mm 1 mps 737 mmHg 97%
    22:00 -1°C° 0 mm 1 mps 737 mmHg 97%
    23:00 -1°C° 0 mm 1 mps 737 mmHg 97%

    21 February, Thursday

    Time Temperature Precipitation Wind Pressure Humidity
    00:00 -3°C° 0 mm 2 mps 737 mmHg 97%
    01:00 -3°C° 0 mm 2 mps 738 mmHg 97%
    02:00 -3°C° 0 mm 2 mps 738 mmHg 97%
    03:00 -3°C° 0 mm 2 mps 739 mmHg 97%
    04:00 -3°C° 0 mm 2 mps 739 mmHg 97%
    05:00 -3°C° 0 mm 2 mps 740 mmHg 96%
    06:00 -3°C° 0 mm 2 mps 741 mmHg 96%
    07:00 -3°C° 0 mm 2 mps 742 mmHg 94%
    08:00 -4°C° 0 mm 3 mps 743 mmHg 93%
    09:00 -2°C° 0 mm 3 mps 744 mmHg 91%
    10:00 -2°C° 0 mm 2 mps 744 mmHg 91%
    11:00 -2°C° 0 mm 2 mps 744 mmHg 91%
    12:00 -1°C° 0 mm 2 mps 744 mmHg 91%
    13:00 -1°C° 0 mm 2 mps 744 mmHg 90%
    14:00 +1°C° 0 mm 1 mps 744 mmHg 89%
    15:00 +1°C° 0 mm 1 mps 744 mmHg 88%
    16:00 +1°C° 0 mm 1 mps 745 mmHg 88%
    17:00 -2°C° 0 mm 2 mps 745 mmHg 89%
    18:00 -2°C° 0 mm 2 mps 745 mmHg 89%
    19:00 -2°C° 0 mm 2 mps 746 mmHg 90%
    20:00 -2°C° 0 mm 2 mps 746 mmHg 91%
    21:00 -2°C° 0 mm 2 mps 746 mmHg 92%
    22:00 -3°C° 0 mm 2 mps 746 mmHg 93%
    23:00 -3°C° 0 mm 2 mps 746 mmHg 93%
    Show more